Location: Cabeza Gorda
(40.0667°N, 4.9667°W)
Time: 20:17:32
(UTC+00:00)

Cosmos 2154 Rocket - Pass Details

Date: 15 January 2026
Orbit: 965 x 997 km, 82.9° (Epoch: 10 February)

Event Time Altitude Azimuth Distance (km) Brightness Sun altitude
Rises 06:17:19 0° 195° (SSW) 3,695 7.0 -15.6°
Reaches altitude 10° 06:19:52 10° 199° (SSW) 2,747 6.3 -15.1°
Maximum altitude 06:26:06 62° 280° (W) 1,103 4.0 -14.0°
Drops below altitude 10° 06:32:20 10° 0° (N) 2,744 6.2 -12.8°
Sets 06:34:54 0° 4° (N) 3,691 6.9 -12.4°
